Content
SEND FEEDBACK

Daily
Averages
Monthly
Summary
United States of America

NEW YORK - CENTRAL PARK, NEW YORK


Home > North America > United States > New York
Elevation: 14 feet     Latitude: 40 47N     Longitude: 073 58W

WEATHER
 
SELECT A DAY
Number of Records: 148,086;   Date Range: 11/1/95 - 7/26/14
 
SHARE

PRINT THIS DATA

[ ← Previous Day ]
WEATHER ALMANAC - MARCH 20, 2013
[ Next Day → ]
[ °C ]   °F
Weather ElementAverageHighLow
Temperature38.6 °F44.1 °F (2:51 pm)33.1 °F (4:51 am)
Dewpoint16.7 °F23 °F (1:51 am)14 °F (6:51 pm)
Humidity41.9 %59 % (1:51 am)30 % (6:51 pm)
Barometer29.83 in29.88 in (6:51 am)29.79 in (2:51 pm)
Wind Speed8.1 mph13.8 mph (10:51 am)
Wind Gust27.6 mph (9:51 am)
Weather ElementAverage
Visibility10 mi
Wind DirectionS (176.5 °)

Weather ElementTotal
Precipitation---
Heating Degree Days26.4 (Base 65)
Averaged from 23 records on March 20, 2013
WEATHER CONDITIONS BREAKOUT
WIND DIRECTION BREAKOUT
WEATHER BY HOUR - MARCH 20, 2013
[ °C ]   °F
Local TimeTemperatureDewpointHumidityBarometerVisibilityWind DirectionWind SpeedGust SpeedPrecipitationEventsConditions
1:51 AM36.0 °F23.0 °F59 %29.83 in10.0 miVariable6.9 mphOvercast
2:51 AM35.1 °F15.1 °F44 %29.85 in10.0 miWNW (290°)10.4 mph17.3 mphPartly Cloudy
3:51 AM34.0 °F17.1 °F50 %29.86 in10.0 miWNW (290°)8.1 mphClear
4:51 AM33.1 °F17.1 °F52 %29.86 in10.0 miWest (270°)8.1 mph18.4 mphClear
5:51 AM33.1 °F17.1 °F52 %29.87 in10.0 miNorthClear
6:51 AM33.1 °F18.0 °F54 %29.88 in10.0 miCalmMostly Cloudy
7:51 AM33.1 °F17.1 °F52 %29.88 in10.0 miWest (280°)9.2 mph20.7 mphMostly Cloudy
8:51 AM34.0 °F16.0 °F48 %29.87 in10.0 miWest (280°)9.2 mph21.9 mphClear
9:51 AM36.0 °F16.0 °F44 %29.87 in10.0 miWNW (300°)12.7 mph27.6 mphScattered Clouds
10:51 AM37.0 °F16.0 °F42 %29.88 in10.0 miWest (280°)13.8 mph25.3 mphMostly Cloudy
11:51 AM37.9 °F16.0 °F41 %29.86 in10.0 miWNW (300°)12.7 mph25.3 mphPartly Cloudy
12:51 PM41.0 °F17.1 °F38 %29.85 in10.0 miWNW (300°)6.9 mph18.4 mphPartly Cloudy
1:51 PM42.1 °F17.1 °F37 %29.83 in10.0 miWNW (300°)10.4 mph17.3 mphClear
2:51 PM44.1 °F17.1 °F34 %29.79 in10.0 miNorthClear
3:51 PM44.1 °F16.0 °F32 %29.79 in10.0 miWNW (300°)8.1 mph16.1 mphOvercast
4:51 PM43.0 °F15.1 °F32 %29.79 in10.0 miWest (260°)12.7 mph20.7 mphOvercast
5:51 PM44.1 °F16.0 °F32 %29.79 in10.0 miVariable6.9 mphMostly Cloudy
6:51 PM44.1 °F14.0 °F30 %29.79 in10.0 miVariable5.8 mphMostly Cloudy
7:51 PM43.0 °F14.0 °F31 %29.79 in10.0 miWNW (300°)5.8 mphClear
8:51 PM41.0 °F16.0 °F36 %29.81 in10.0 miNW (310°)3.5 mphScattered Clouds
9:51 PM41.0 °F17.1 °F38 %29.81 in10.0 miVariable4.6 mphOvercast
10:51 PM41.0 °F17.1 °F38 %29.82 in10.0 miNorthOvercast
11:51 PM37.9 °F19.9 °F48 %29.83 in10.0 miVariable6.9 mphOvercast
Hourly data recorded from KNYC, located miles away from New York - Central Park, New York







STORIES FROM OUR PARTNERS